Content
SEND FEEDBACK

Daily
Averages
Monthly
Summary
Mauritania

PORT-ETIENNE, MAURITANIA


Home > Africa > Mauritania
Elevation: 10 feet     Latitude: 20 54N     Longitude: 017 06W

WEATHER
 
SELECT A DAY
Number of Records: 118,056;   Date Range: 7/1/96 - 8/27/14
 
SHARE

PRINT THIS DATA

[ ← Previous Day ]
WEATHER ALMANAC - MARCH 20, 2013
[ Next Day → ]
[ °C ]   °F
Weather ElementAverageHighLow
Temperature69.7 °F84.2 °F (2:00 pm)64 °F (6:00 am)
Dewpoint60 °F62 °F (3:00 am)57.2 °F (1:00 pm)
Humidity71.2 %88 % (3:00 am)42 % (2:00 pm)
Barometer29.92 in29.98 in (9:00 am)29.86 in (3:00 pm)
Wind Speed18.5 mph24.2 mph (4:00 am)
Weather ElementAverage
Visibility4.9 mi
Wind DirectionWSW (247.9 °)

Weather ElementTotal
Precipitation---
Cooling Degree Days9.1 (Base 65)
Growing Degree Days24.1 (Base 50)
Averaged from 30 records on March 20, 2013
WEATHER CONDITIONS BREAKOUT
WIND DIRECTION BREAKOUT
WEATHER BY HOUR - MARCH 20, 2013
[ °C ]   °F
Local TimeTemperatureDewpointHumidityBarometerVisibilityWind DirectionWind SpeedGust SpeedPrecipitationEventsConditions
12:00 AM66.2 °F60.8 °F83 %29.95 in5.0 miNNW (340°)16.1 mph
1:00 AM66.2 °F60.8 °F83 %29.95 in5.0 miNorth (350°)16.1 mph
2:00 AM66.2 °F60.8 °F83 %29.92 in5.0 miNorth (350°)18.4 mph
3:00 AM65.0 °F62.0 °F88 %29.92 in5.0 miNorth21.9 mphClear
3:00 AM66.2 °F60.8 °F83 %29.92 in5.0 miNorth (360°)11.5 mph
4:00 AM66.2 °F60.8 °F83 %29.89 in5.0 miNorth (360°)24.2 mph
5:00 AM64.4 °F60.8 °F88 %29.92 in5.0 miNorth (360°)23.0 mph
6:00 AM64.4 °F59.0 °F83 %29.92 in5.0 miNorth (360°)21.9 mph
6:00 AM64.0 °F61.0 °F85 %29.94 in5.0 miNorth20.7 mphClear
7:00 AM64.4 °F59.0 °F83 %29.92 in5.0 miNorth (360°)18.4 mph
8:00 AM64.4 °F59.0 °F83 %29.95 in5.0 miNorth (360°)18.4 mph
9:00 AM67.0 °F62.0 °F79 %29.98 in5.0 miNorth (10°)23.0 mphClear
9:00 AM68.0 °F60.8 °F78 %29.95 in5.0 miNorth (10°)23.0 mph
10:00 AM68.0 °F60.8 °F78 %29.98 in5.0 miNorth (10°)23.0 mph
11:00 AM71.6 °F60.8 °F69 %29.98 in5.0 miNNE (20°)20.7 mph
12:00 PM75.2 °F59.0 °F57 %29.95 in5.0 miNorth (10°)18.4 mph
12:00 PM76.0 °F60.0 °F47 %29.98 in5.0 mi°18.4 mph
1:00 PM80.6 °F57.2 °F45 %29.92 in5.0 miNorth (10°)15.0 mph
2:00 PM84.2 °F59.0 °F42 %29.89 in5.0 miNorth (360°)11.5 mph
3:00 PM76.0 °F61.0 °F51 %29.89 in5.0 miNW (310°)17.3 mph
3:00 PM75.2 °F60.8 °F61 %29.86 in5.0 miNW (310°)17.3 mph
4:00 PM73.4 °F59.0 °F61 %29.86 in5.0 miNW (320°)20.7 mph
5:00 PM73.4 °F59.0 °F61 %29.86 in4.3 miNW (320°)20.7 mph
6:00 PM71.6 °F59.0 °F64 %29.86 in5.0 miNW (320°)20.7 mph
6:00 PM72.0 °F61.0 °F59 %29.88 in4.0 miNW (320°)19.6 mphScattered Clouds
7:00 PM69.8 °F59.0 °F68 %29.89 in5.0 miNW (320°)20.7 mph
8:00 PM68.0 °F59.0 °F73 %29.89 in5.0 miNW (320°)16.1 mph
9:00 PM68.0 °F59.0 °F73 %29.92 in5.0 miNNW (340°)13.8 mph
10:00 PM68.0 °F59.0 °F73 %29.92 in5.0 miNNW (340°)12.7 mph
11:00 PM68.0 °F59.0 °F73 %29.95 in5.0 miNNW (340°)11.5 mph
Hourly data recorded from GQPP, located miles away from Port-Etienne, Mauritania







STORIES FROM OUR PARTNERS